Cochise — WDD8952 — position and weather

sailwx.info

Track history (hours):
 
Tides and Currents Weather Stations Pressure Air Temp Water Temp Dewpoint Dewpoint Depression Visibility Wind Speed Wind Dir Waves Ship Positions

Cochise

More information available from US FCC via Universal Licensing System and Coast Guard Vessel Documentation Center.

Last reported at 2014-Jul-31 00:33 UTC. Time now 2014-Jul-31 01:26 UTC.
Position N 37°46' W 122°23'.

Length 32 m; draft 4.9 m.

Type: Tug. MMSI: 367304990.

Date/timePositionNaut miles runAvg speedWind from/ knotsBaromVisibWave heightAir tempDewpointWater temp
2014-Jul-31 00:33N 37°46' W 122°23'0 0.0
2014-Jul-30 23:33N 37°46' W 122°23'0 0.0
2014-Jul-30 22:33N 37°46' W 122°23'0 0.0
2014-Jul-30 21:33N 37°46' W 122°23'0 0.0
2014-Jul-30 20:33N 37°46' W 122°23'0 0.0
2014-Jul-30 19:33N 37°46' W 122°23'0 0.0
2014-Jul-30 18:33N 37°46' W 122°23'0 0.0
2014-Jul-30 17:33N 37°46' W 122°23'4 4.3
2014-Jul-30 16:33N 37°51' W 122°24'5 4.6
2014-Jul-30 15:33N 37°55' W 122°25'0 0.0
2014-Jul-30 14:33N 37°55' W 122°25'0 0.0
2014-Jul-30 13:33N 37°55' W 122°25'0 0.0
2014-Jul-30 12:33N 37°55' W 122°25'0 0.0
2014-Jul-30 11:33N 37°55' W 122°25'0 0.0
2014-Jul-30 10:33N 37°55' W 122°25'0 0.0
2014-Jul-30 09:33N 37°55' W 122°25'0 0.0
2014-Jul-30 08:33N 37°55' W 122°25'0 0.0
2014-Jul-30 07:33N 37°55' W 122°25'0 0.0
2014-Jul-30 06:33N 37°55' W 122°25'0 0.0
2014-Jul-30 05:33N 37°55' W 122°25'0 0.0
2014-Jul-30 04:33N 37°55' W 122°25'0 0.0
2014-Jul-30 03:33N 37°55' W 122°25'0 0.0
2014-Jul-30 02:33N 37°55' W 122°25'0 0.0
2014-Jul-30 01:33N 37°55' W 122°25'0 0.0
2014-Jul-30 00:33N 37°55' W 122°25'0 0.0
2014-Jul-29 23:33N 37°55' W 122°25'0 0.0
2014-Jul-29 22:33N 37°55' W 122°25'0 0.0
2014-Jul-29 21:33N 37°55' W 122°25'0 0.0
2014-Jul-29 20:33N 37°55' W 122°25'0 0.0
2014-Jul-29 19:33N 37°55' W 122°25'0 0.3
2014-Jul-29 18:33N 37°55' W 122°25'1 1.0
2014-Jul-29 17:33N 37°55' W 122°26'7 6.5
2014-Jul-29 16:33N 37°49' W 122°29'9 8.9
2014-Jul-29 15:33N 37°45' W 122°39'8 8.1
2014-Jul-29 14:33N 37°40' W 122°47'8 8.2
2014-Jul-29 13:33N 37°36' W 122°56'8 8.0
2014-Jul-29 12:33N 37°31' W 123°04'7 6.4
2014-Jul-29 11:26N 37°24' W 123°07'6 7.0
2014-Jul-29 10:32N 37°18' W 123°03'7 6.7
2014-Jul-29 09:33N 37°12' W 122°60'7 7.2
2014-Jul-29 08:33N 37°06' W 122°56'9 8.8
2014-Jul-29 07:33N 36°58' W 122°51'9 8.8
2014-Jul-29 06:33N 36°50' W 122°47'9 8.9
2014-Jul-29 05:33N 36°42' W 122°42'9 8.8
2014-Jul-29 04:33N 36°34' W 122°37'9 8.6
2014-Jul-29 03:27N 36°25' W 122°32'7 8.3
2014-Jul-29 02:33N 36°19' W 122°29'9 8.3
2014-Jul-29 01:27N 36°10' W 122°24'8 8.6
2014-Jul-29 00:33N 36°04' W 122°19'10 8.9
2014-Jul-28 23:28N 35°56' W 122°12'10 9.3
2014-Jul-28 22:25N 35°48' W 122°04'8 9.4
2014-Jul-28 21:32N 35°42' W 121°58'9 8.9
2014-Jul-28 20:30N 35°35' W 121°51'9 9.0
2014-Jul-28 19:27N 35°27' W 121°44'8 9.2
2014-Jul-28 18:32N 35°20' W 121°38'9 8.9
2014-Jul-28 17:33N 35°13' W 121°33'10 9.1
2014-Jul-28 16:30N 35°04' W 121°27'18 9.0
2014-Jul-28 14:28N 34°49' W 121°15'8 8.6
2014-Jul-28 13:33N 34°42' W 121°10'8 8.5
2014-Jul-28 12:33N 34°34' W 121°05'9 8.6
2014-Jul-28 11:33N 34°27' W 121°00'9 8.7
2014-Jul-28 10:31N 34°19' W 120°55'19 8.7
2014-Jul-28 08:19N 34°02' W 120°43'34 8.6
2014-Jul-28 04:19N 33°45' W 120°07'8 9.4
2014-Jul-28 03:28N 33°46' W 119°58'9 9.4
2014-Jul-28 02:33N 33°48' W 119°48'9 8.6
2014-Jul-28 01:33N 33°50' W 119°38'9 9.2
2014-Jul-28 00:33N 33°51' W 119°27'9 9.3
2014-Jul-27 23:33N 33°49' W 119°16'10 9.6
2014-Jul-27 22:33N 33°44' W 119°07'9 8.7
2014-Jul-27 21:33N 33°39' W 118°57'9 8.9
2014-Jul-27 20:33N 33°39' W 118°47'9 8.8
2014-Jul-27 19:33N 33°39' W 118°36'9 9.0
2014-Jul-27 18:33N 33°38' W 118°25'9 8.9
2014-Jul-27 17:33N 33°40' W 118°15'5 4.8
2014-Jul-27 16:33N 33°45' W 118°17'1 0.7
2014-Jul-27 15:28N 33°45' W 118°17'0 0.0
2014-Jul-27 14:31N 33°45' W 118°17'0 0.0
2014-Jul-27 13:31N 33°45' W 118°17'0 0.0
2014-Jul-27 12:31N 33°45' W 118°17'0 0.0
2014-Jul-27 11:31N 33°45' W 118°17'0 0.0
2014-Jul-27 10:31N 33°45' W 118°17'0 0.0
2014-Jul-27 09:31N 33°45' W 118°17'0 0.0
2014-Jul-27 08:31N 33°45' W 118°17'0 0.0
2014-Jul-27 07:31N 33°45' W 118°17'0 0.0
2014-Jul-27 06:31N 33°45' W 118°17'0 0.0
2014-Jul-27 05:31N 33°45' W 118°17'0 0.0
2014-Jul-27 04:31N 33°45' W 118°17'0 0.0
2014-Jul-27 03:31N 33°45' W 118°17'0 0.0
2014-Jul-27 02:31N 33°45' W 118°17'0 0.0
2014-Jul-27 01:31N 33°45' W 118°17'0 0.0
2014-Jul-27 00:31N 33°45' W 118°17'0 0.0
2014-Jul-26 23:31N 33°45' W 118°17'0 0.0
2014-Jul-26 22:31N 33°45' W 118°17'0 0.0
2014-Jul-26 21:28N 33°45' W 118°17'0 0.0
2014-Jul-26 20:28N 33°45' W 118°17'0 0.0
2014-Jul-26 18:19N 33°45' W 118°17'0 0.0
2014-Jul-26 17:31N 33°45' W 118°17'0 0.0
2014-Jul-26 16:31N 33°45' W 118°17'0 0.0
2014-Jul-26 14:31N 33°45' W 118°17'0 0.0
2014-Jul-26 13:31N 33°45' W 118°17'0 0.1
2014-Jul-26 12:34N 33°45' W 118°17'3 2.8
2014-Jul-26 11:33N 33°43' W 118°15'4 3.7
2014-Jul-26 10:33N 33°46' W 118°13'0 0.1
2014-Jul-26 09:33N 33°46' W 118°13'0 0.0
2014-Jul-26 08:26N 33°46' W 118°13'0 0.0
2014-Jul-26 07:11N 33°46' W 118°13'0 0.0
2014-Jul-26 06:29N 33°46' W 118°13'0 0.0
2014-Jul-26 05:11N 33°46' W 118°13'0 0.0
2014-Jul-26 03:29N 33°46' W 118°13'0 0.0
2014-Jul-26 01:17N 33°46' W 118°13'0 0.2
2014-Jul-26 00:33N 33°46' W 118°13'3 3.4
2014-Jul-25 23:32N 33°44' W 118°16'0 0.0
2014-Jul-25 22:14N 33°44' W 118°16'0 0.0
2014-Jul-25 21:32N 33°44' W 118°16'2 2.3
2014-Jul-25 20:34N 33°43' W 118°14'2 0.4
2014-Jul-25 16:33N 33°45' W 118°13'13 6.3
2014-Jul-25 14:33N 33°36' W 118°24'10 9.8
2014-Jul-25 13:33N 33°37' W 118°35'10 9.6
2014-Jul-25 12:30N 33°38' W 118°47'9 9.6
2014-Jul-25 11:33N 33°39' W 118°58'13 9.0
2014-Jul-25 10:05N 33°40' W 119°14'6 9.3
2014-Jul-25 09:27N 33°41' W 119°21'19 9.6
2014-Jul-25 07:27N 33°43' W 119°44'9 9.8
2014-Jul-25 06:33N 33°44' W 119°54'10 9.6
2014-Jul-25 05:33N 33°45' W 120°06'10 9.6
2014-Jul-25 04:33N 33°48' W 120°17'1010.0
2014-Jul-25 03:33N 33°52' W 120°28'10 9.8
2014-Jul-25 02:33N 33°56' W 120°39'10 9.7
2014-Jul-25 01:33N 34°03' W 120°46'1010.0
2014-Jul-25 00:33N 34°11' W 120°53'1010.0
2014-Jul-24 23:33N 34°20' W 120°60'1010.1
2014-Jul-24 22:33N 34°28' W 121°06'10 9.8
2014-Jul-24 21:33N 34°37' W 121°13'10 9.8
2014-Jul-24 20:33N 34°45' W 121°19'10 9.6
2014-Jul-24 19:33N 34°53' W 121°26'9 9.4
2014-Jul-24 18:33N 35°01' W 121°32'9 9.2
2014-Jul-24 17:33N 35°08' W 121°38'9 9.1
2014-Jul-24 16:33N 35°16' W 121°44'9 9.4
2014-Jul-24 15:33N 35°24' W 121°51'10 9.5
2014-Jul-24 14:33N 35°32' W 121°57'10 9.7
2014-Jul-24 13:33N 35°40' W 122°04'10 9.7
2014-Jul-24 12:33N 35°48' W 122°10'10 9.7
2014-Jul-24 11:33N 35°56' W 122°16'10 9.7
2014-Jul-24 10:33N 36°04' W 122°23'10 9.7
2014-Jul-24 09:33N 36°13' W 122°29'10 9.6
2014-Jul-24 08:33N 36°21' W 122°36'10 9.8
2014-Jul-24 07:33N 36°29' W 122°41'10 9.7
2014-Jul-24 06:33N 36°38' W 122°47'10 9.8
2014-Jul-24 05:32N 36°47' W 122°52'10 9.9
2014-Jul-24 04:33N 36°56' W 122°58'1010.1
2014-Jul-24 03:33N 37°05' W 123°03'1010.3
2014-Jul-24 02:33N 37°14' W 123°09'1010.3
2014-Jul-24 01:33N 37°24' W 123°14'10 9.9
2014-Jul-24 00:33N 37°32' W 123°20'1010.0
2014-Jul-23 23:33N 37°42' W 123°24'10 9.8
2014-Jul-23 22:33N 37°51' W 123°29'10 9.8
2014-Jul-23 21:33N 37°60' W 123°34'1010.2
2014-Jul-23 20:33N 38°09' W 123°38'10 9.9
2014-Jul-23 19:33N 38°19' W 123°43'10 9.7
2014-Jul-23 18:33N 38°28' W 123°47'  
Track history (hours):
 
Tides and Currents Weather Stations Pressure Air Temp Water Temp Dewpoint Dewpoint Depression Visibility Wind Speed Wind Dir Waves Ship Positions

Cochise

More information available from US FCC via Universal Licensing System and Coast Guard Vessel Documentation Center.

Last reported at 2014-Jul-31 00:33 UTC. Time now 2014-Jul-31 01:26 UTC.
Position N 37°46' W 122°23'.

Length 32 m; draft 4.9 m.

Type: Tug. MMSI: 367304990.

Date/timePositionNaut miles runAvg speedWind from/ knotsBaromVisibWave heightAir tempDewpointWater temp
2014-Jul-31 00:33N 37°46' W 122°23'0 0.0
2014-Jul-30 23:33N 37°46' W 122°23'0 0.0
2014-Jul-30 22:33N 37°46' W 122°23'0 0.0
2014-Jul-30 21:33N 37°46' W 122°23'0 0.0
2014-Jul-30 20:33N 37°46' W 122°23'0 0.0
2014-Jul-30 19:33N 37°46' W 122°23'0 0.0
2014-Jul-30 18:33N 37°46' W 122°23'0 0.0
2014-Jul-30 17:33N 37°46' W 122°23'4 4.3
2014-Jul-30 16:33N 37°51' W 122°24'5 4.6
2014-Jul-30 15:33N 37°55' W 122°25'0 0.0
2014-Jul-30 14:33N 37°55' W 122°25'0 0.0
2014-Jul-30 13:33N 37°55' W 122°25'0 0.0
2014-Jul-30 12:33N 37°55' W 122°25'0 0.0
2014-Jul-30 11:33N 37°55' W 122°25'0 0.0
2014-Jul-30 10:33N 37°55' W 122°25'0 0.0
2014-Jul-30 09:33N 37°55' W 122°25'0 0.0
2014-Jul-30 08:33N 37°55' W 122°25'0 0.0
2014-Jul-30 07:33N 37°55' W 122°25'0 0.0
2014-Jul-30 06:33N 37°55' W 122°25'0 0.0
2014-Jul-30 05:33N 37°55' W 122°25'0 0.0
2014-Jul-30 04:33N 37°55' W 122°25'0 0.0
2014-Jul-30 03:33N 37°55' W 122°25'0 0.0
2014-Jul-30 02:33N 37°55' W 122°25'0 0.0
2014-Jul-30 01:33N 37°55' W 122°25'0 0.0
2014-Jul-30 00:33N 37°55' W 122°25'0 0.0
2014-Jul-29 23:33N 37°55' W 122°25'0 0.0
2014-Jul-29 22:33N 37°55' W 122°25'0 0.0
2014-Jul-29 21:33N 37°55' W 122°25'0 0.0
2014-Jul-29 20:33N 37°55' W 122°25'0 0.0
2014-Jul-29 19:33N 37°55' W 122°25'0 0.3
2014-Jul-29 18:33N 37°55' W 122°25'1 1.0
2014-Jul-29 17:33N 37°55' W 122°26'7 6.5
2014-Jul-29 16:33N 37°49' W 122°29'9 8.9
2014-Jul-29 15:33N 37°45' W 122°39'8 8.1
2014-Jul-29 14:33N 37°40' W 122°47'8 8.2
2014-Jul-29 13:33N 37°36' W 122°56'8 8.0
2014-Jul-29 12:33N 37°31' W 123°04'7 6.4
2014-Jul-29 11:26N 37°24' W 123°07'6 7.0
2014-Jul-29 10:32N 37°18' W 123°03'7 6.7
2014-Jul-29 09:33N 37°12' W 122°60'7 7.2
2014-Jul-29 08:33N 37°06' W 122°56'9 8.8
2014-Jul-29 07:33N 36°58' W 122°51'9 8.8
2014-Jul-29 06:33N 36°50' W 122°47'9 8.9
2014-Jul-29 05:33N 36°42' W 122°42'9 8.8
2014-Jul-29 04:33N 36°34' W 122°37'9 8.6
2014-Jul-29 03:27N 36°25' W 122°32'7 8.3
2014-Jul-29 02:33N 36°19' W 122°29'9 8.3
2014-Jul-29 01:27N 36°10' W 122°24'8 8.6
2014-Jul-29 00:33N 36°04' W 122°19'10 8.9
2014-Jul-28 23:28N 35°56' W 122°12'10 9.3
2014-Jul-28 22:25N 35°48' W 122°04'8 9.4
2014-Jul-28 21:32N 35°42' W 121°58'9 8.9
2014-Jul-28 20:30N 35°35' W 121°51'9 9.0
2014-Jul-28 19:27N 35°27' W 121°44'8 9.2
2014-Jul-28 18:32N 35°20' W 121°38'9 8.9
2014-Jul-28 17:33N 35°13' W 121°33'10 9.1
2014-Jul-28 16:30N 35°04' W 121°27'18 9.0
2014-Jul-28 14:28N 34°49' W 121°15'8 8.6
2014-Jul-28 13:33N 34°42' W 121°10'8 8.5
2014-Jul-28 12:33N 34°34' W 121°05'9 8.6
2014-Jul-28 11:33N 34°27' W 121°00'9 8.7
2014-Jul-28 10:31N 34°19' W 120°55'19 8.7
2014-Jul-28 08:19N 34°02' W 120°43'34 8.6
2014-Jul-28 04:19N 33°45' W 120°07'8 9.4
2014-Jul-28 03:28N 33°46' W 119°58'9 9.4
2014-Jul-28 02:33N 33°48' W 119°48'9 8.6
2014-Jul-28 01:33N 33°50' W 119°38'9 9.2
2014-Jul-28 00:33N 33°51' W 119°27'9 9.3
2014-Jul-27 23:33N 33°49' W 119°16'10 9.6
2014-Jul-27 22:33N 33°44' W 119°07'9 8.7
2014-Jul-27 21:33N 33°39' W 118°57'9 8.9
2014-Jul-27 20:33N 33°39' W 118°47'9 8.8
2014-Jul-27 19:33N 33°39' W 118°36'9 9.0
2014-Jul-27 18:33N 33°38' W 118°25'9 8.9
2014-Jul-27 17:33N 33°40' W 118°15'5 4.8
2014-Jul-27 16:33N 33°45' W 118°17'1 0.7
2014-Jul-27 15:28N 33°45' W 118°17'0 0.0
2014-Jul-27 14:31N 33°45' W 118°17'0 0.0
2014-Jul-27 13:31N 33°45' W 118°17'0 0.0
2014-Jul-27 12:31N 33°45' W 118°17'0 0.0
2014-Jul-27 11:31N 33°45' W 118°17'0 0.0
2014-Jul-27 10:31N 33°45' W 118°17'0 0.0
2014-Jul-27 09:31N 33°45' W 118°17'0 0.0
2014-Jul-27 08:31N 33°45' W 118°17'0 0.0
2014-Jul-27 07:31N 33°45' W 118°17'0 0.0
2014-Jul-27 06:31N 33°45' W 118°17'0 0.0
2014-Jul-27 05:31N 33°45' W 118°17'0 0.0
2014-Jul-27 04:31N 33°45' W 118°17'0 0.0
2014-Jul-27 03:31N 33°45' W 118°17'0 0.0
2014-Jul-27 02:31N 33°45' W 118°17'0 0.0
2014-Jul-27 01:31N 33°45' W 118°17'0 0.0
2014-Jul-27 00:31N 33°45' W 118°17'0 0.0
2014-Jul-26 23:31N 33°45' W 118°17'0 0.0
2014-Jul-26 22:31N 33°45' W 118°17'0 0.0
2014-Jul-26 21:28N 33°45' W 118°17'0 0.0
2014-Jul-26 20:28N 33°45' W 118°17'0 0.0
2014-Jul-26 18:19N 33°45' W 118°17'0 0.0
2014-Jul-26 17:31N 33°45' W 118°17'0 0.0
2014-Jul-26 16:31N 33°45' W 118°17'0 0.0
2014-Jul-26 14:31N 33°45' W 118°17'0 0.0
2014-Jul-26 13:31N 33°45' W 118°17'0 0.1
2014-Jul-26 12:34N 33°45' W 118°17'3 2.8
2014-Jul-26 11:33N 33°43' W 118°15'4 3.7
2014-Jul-26 10:33N 33°46' W 118°13'0 0.1
2014-Jul-26 09:33N 33°46' W 118°13'0 0.0
2014-Jul-26 08:26N 33°46' W 118°13'0 0.0
2014-Jul-26 07:11N 33°46' W 118°13'0 0.0
2014-Jul-26 06:29N 33°46' W 118°13'0 0.0
2014-Jul-26 05:11N 33°46' W 118°13'0 0.0
2014-Jul-26 03:29N 33°46' W 118°13'0 0.0
2014-Jul-26 01:17N 33°46' W 118°13'0 0.2
2014-Jul-26 00:33N 33°46' W 118°13'3 3.4
2014-Jul-25 23:32N 33°44' W 118°16'0 0.0
2014-Jul-25 22:14N 33°44' W 118°16'0 0.0
2014-Jul-25 21:32N 33°44' W 118°16'2 2.3
2014-Jul-25 20:34N 33°43' W 118°14'2 0.4
2014-Jul-25 16:33N 33°45' W 118°13'13 6.3
2014-Jul-25 14:33N 33°36' W 118°24'10 9.8
2014-Jul-25 13:33N 33°37' W 118°35'10 9.6
2014-Jul-25 12:30N 33°38' W 118°47'9 9.6
2014-Jul-25 11:33N 33°39' W 118°58'13 9.0
2014-Jul-25 10:05N 33°40' W 119°14'6 9.3
2014-Jul-25 09:27N 33°41' W 119°21'19 9.6
2014-Jul-25 07:27N 33°43' W 119°44'9 9.8
2014-Jul-25 06:33N 33°44' W 119°54'10 9.6
2014-Jul-25 05:33N 33°45' W 120°06'10 9.6
2014-Jul-25 04:33N 33°48' W 120°17'1010.0
2014-Jul-25 03:33N 33°52' W 120°28'10 9.8
2014-Jul-25 02:33N 33°56' W 120°39'10 9.7
2014-Jul-25 01:33N 34°03' W 120°46'1010.0
2014-Jul-25 00:33N 34°11' W 120°53'1010.0
2014-Jul-24 23:33N 34°20' W 120°60'1010.1
2014-Jul-24 22:33N 34°28' W 121°06'10 9.8
2014-Jul-24 21:33N 34°37' W 121°13'10 9.8
2014-Jul-24 20:33N 34°45' W 121°19'10 9.6
2014-Jul-24 19:33N 34°53' W 121°26'9 9.4
2014-Jul-24 18:33N 35°01' W 121°32'9 9.2
2014-Jul-24 17:33N 35°08' W 121°38'9 9.1
2014-Jul-24 16:33N 35°16' W 121°44'9 9.4
2014-Jul-24 15:33N 35°24' W 121°51'10 9.5
2014-Jul-24 14:33N 35°32' W 121°57'10 9.7
2014-Jul-24 13:33N 35°40' W 122°04'10 9.7
2014-Jul-24 12:33N 35°48' W 122°10'10 9.7
2014-Jul-24 11:33N 35°56' W 122°16'10 9.7
2014-Jul-24 10:33N 36°04' W 122°23'10 9.7
2014-Jul-24 09:33N 36°13' W 122°29'10 9.6
2014-Jul-24 08:33N 36°21' W 122°36'10 9.8
2014-Jul-24 07:33N 36°29' W 122°41'10 9.7
2014-Jul-24 06:33N 36°38' W 122°47'10 9.8
2014-Jul-24 05:32N 36°47' W 122°52'10 9.9
2014-Jul-24 04:33N 36°56' W 122°58'1010.1
2014-Jul-24 03:33N 37°05' W 123°03'1010.3
2014-Jul-24 02:33N 37°14' W 123°09'1010.3
2014-Jul-24 01:33N 37°24' W 123°14'10 9.9
2014-Jul-24 00:33N 37°32' W 123°20'1010.0
2014-Jul-23 23:33N 37°42' W 123°24'10 9.8
2014-Jul-23 22:33N 37°51' W 123°29'10 9.8
2014-Jul-23 21:33N 37°60' W 123°34'1010.2
2014-Jul-23 20:33N 38°09' W 123°38'10 9.9
2014-Jul-23 19:33N 38°19' W 123°43'10 9.7
2014-Jul-23 18:33N 38°28' W 123°47'  

Dump ship's entire track history